Location: Astronight Observatory
(42.6003°N, 71.2981°W)
Time: 17:47:40
(UTC-04:00)

Daily predictions for brighter satellites

Satellite Brightness Start Highest point End
(mag) Time Altitude Azimuth Time Altitude Azimuth Time Altitude Azimuth
BREEZE-M DEB (TANK) 3.9 19:52:09 10° W 19:55:52 65° N 20:09:07 10° E
Cosmos 1242 Rocket 3.4 20:02:33 10° SSW 20:06:11 57° WNW 20:09:47 10° N
HJ-1C 4.3 20:02:51 10° S 20:06:14 54° W 20:09:38 10° NNW
Cosmos 1486 Rocket 4.3 20:01:54 10° N 20:07:02 53° ENE 20:12:09 10° SE
Meteor 1-27 4.3 20:02:47 10° S 20:08:25 88° WNW 20:14:01 10° N
CENTAUR R/B 2.9 20:05:33 10° SW 20:11:35 72° NW 20:18:32 10° NNE
Cosmos 1408 4.0 20:09:40 10° NNE 20:12:34 21° ENE 20:15:26 10° SE
ERBS 3.3 20:12:59 10° NNW 20:16:14 37° NE 20:19:22 11° ESE
Cosmos 1455 2.1 20:13:38 10° S 20:17:24 68° E 20:21:10 10° NNE
Cosmos 2026 Rocket 4.5 20:12:41 10° N 20:18:33 40° ENE 20:24:18 10° SE
Cosmos 1869 3.8 20:17:10 10° SSE 20:20:49 38° E 20:24:30 10° NNE
Cosmos 1697 Rocket 3.4 20:16:48 10° SW 20:22:21 59° WNW 20:27:57 10° NNE
SeaSat 1 4.2 20:20:57 10° E 20:24:15 18° NE 20:27:34 10° N
ATLAS CENTAUR R/B 3.3 20:23:44 10° WNW 20:26:04 27° SW 20:30:45 10° SSE
Cosmos 1400 Rocket 3.6 20:23:07 10° NNW 20:26:55 53° W 20:30:45 10° S
Cosmos 2297 Rocket 4.4 20:24:50 10° NW 20:29:19 25° WSW 20:33:48 10° SSW
Nadezhda 4 Rocket 4.3 20:23:18 10° NNW 20:29:32 72° W 20:35:48 10° S
OTV 4 2.9 20:29:00 10° SW 20:30:11 12° SSW 20:31:22 10° S
ALOS 4.3 20:28:27 10° SSW 20:32:29 29° W 20:36:33 10° NW
DELTA 2 R/B (1) 4.4 20:28:16 10° W 20:33:28 39° SSW 20:37:59 13° SE
Cosmos 1892 3.7 20:29:51 10° NNW 20:33:31 48° W 20:37:11 10° SSW
CZ-4B DEB 4.5 20:31:56 10° SSE 20:35:28 72° ENE 20:39:01 10° N
Cosmos 1634 Rocket 4.0 20:30:56 10° S 20:37:10 71° E 20:43:28 10° NNE
Cosmos 1503 Rocket 4.3 20:32:59 10° N 20:38:09 52° ENE 20:42:25 15° SE
Cosmos 1092 Rocket 4.1 20:31:54 10° N 20:38:16 85° W 20:44:37 10° S
Intercosmos 25 Rocket 3.5 20:35:44 10° SSE 20:38:40 37° E 20:42:10 10° NNE
Cosmos 2263 Rocket 3.1 20:33:52 10° N 20:38:53 33° NE 20:42:39 16° ESE
Cosmos 1315 Rocket 3.0 20:35:12 10° NNW 20:39:18 77° W 20:43:19 10° S
Cosmos 1655 Rocket 4.3 20:33:50 10° N 20:40:02 49° ENE 20:45:52 11° SSE
Cosmos 1933 4.5 20:38:53 16° SE 20:41:08 25° E 20:44:27 10° NE
Cosmos 1354 Rocket 4.2 20:36:15 10° NNW 20:41:28 56° ENE 20:45:44 15° SE
Cosmos 2322 Rocket 2.4 20:37:39 10° S 20:42:56 45° ESE 20:48:16 10° NE
USA 186 2.6 20:40:41 10° S 20:43:14 42° W 20:45:58 10° NNW
H-2A R/B 3.9 20:43:26 10° E 20:45:31 13° ENE 20:47:47 10° NNE
Cosmos 1707 Rocket 4.0 20:43:11 10° SSW 20:47:37 67° W 20:52:02 10° N
YAOGAN 6 3.3 20:45:47 20° SE 20:47:47 36° ENE 20:51:09 10° N
Abrixas rocket 2.3 20:45:47 10° WSW 20:49:04 75° NNW 20:52:21 10° ENE
USA 267 4.5 20:43:12 10° NE 20:49:18 44° NNW 20:55:25 10° W
Meteor 2-20 Rocket 4.4 20:47:33 10° N 20:53:42 79° E 20:59:49 10° SSE
Cosmos 2360 Rocket 3.3 20:52:40 19° SE 20:54:19 22° E 20:58:31 10° NE
Cosmos 1733 Rocket 3.3 20:50:08 10° N 20:54:29 50° ENE 20:57:20 20° SSE
Cosmos 1980 Rocket 3.1 20:49:19 10° SW 20:54:52 54° WNW 21:00:29 10° NNE
Helios 1B rocket 2.7 20:54:03 10° N 20:58:09 72° WNW 21:02:13 10° SSW
Meteor 1-29 3.1 20:56:38 10° N 21:00:09 78° WNW 21:03:36 10° SSW
Cosmos 1862 Rocket 3.8 20:56:58 14° SSE 21:00:32 48° E 21:04:52 10° NNE
Lacrosse 4 Rocket 1.5 20:56:35 10° NNW 21:00:53 67° ENE 21:03:17 26° SE
Cosmos 1825 2.1 21:01:59 10° N 21:05:47 85° W 21:08:24 19° S
Cosmos 1862 3.3 21:02:16 10° N 21:06:17 64° E 21:08:23 26° SSE
Envisat 3.4 21:03:15 10° S 21:08:17 64° WSW 21:13:21 10° NNW
SL-16 R/B 2.1 21:04:09 10° SSW 21:09:48 74° ESE 21:15:28 10° NNE
Cosmos 1939 Rocket 3.3 21:09:41 14° S 21:13:07 60° W 21:17:07 10° NNW
Cosmos 2242 Rocket 3.8 21:09:25 10° SSW 21:13:56 73° W 21:18:26 10° N
Milstar 3 4.0 21:09:00 10° WSW 21:14:52 24° S 21:17:22 20° SSE
SPOT 5 3.5 21:15:36 29° ESE 21:17:21 40° ENE 21:21:45 10° N
CZ-4B DEB 4.3 21:15:52 13° SSW 21:18:07 32° W 21:20:55 10° NNW
Cosmos 2279 Rocket 3.9 21:13:24 10° S 21:19:39 88° E 21:25:56 10° N
Cosmos 1703 Rocket 4.4 21:20:14 30° E 21:20:23 30° E 21:24:16 10° NNE
ATLAS 5 CENTAUR R/B 2.9 21:15:31 10° NNW 21:21:13 46° NE 21:24:21 27° ESE
USA 234 3.7 21:20:01 21° SSE 21:24:23 54° SW 21:30:48 10° NW
MetOp-B 4.2 21:21:51 30° SE 21:24:24 61° ENE 21:29:41 10° N
Meteor 1-26 Rocket 4.5 21:24:04 29° SSE 21:26:36 48° E 21:32:06 10° NNE
OAO 3 Rocket 3.9 21:24:21 10° WSW 21:28:48 34° S 21:29:18 33° SSE
SPOT 1/Viking Rocket 4.1 21:30:50 34° ESE 21:32:17 41° ENE 21:37:10 10° N
ARGOS 3.3 21:30:20 35° SE 21:32:18 55° ENE 21:37:34 10° N
Atlas Centaur 2 3.8 21:27:23 10° SW 21:33:33 27° SSE 21:34:13 27° SSE
MOS 1-B Rocket 4.0 21:35:42 35° SE 21:38:08 58° ENE 21:43:41 10° N
Cosmos 1844 Rocket 4.0 21:38:03 10° N 21:42:38 25° NE 21:44:04 23° ENE
ERS-1 Rocket 3.4 21:42:11 26° S 21:44:56 59° WSW 21:49:55 10° NNW
ERBS 4.2 21:50:00 10° WNW 21:52:42 22° SW 21:52:42 22° SW
Sich 1 Rocket 3.5 21:48:39 10° N 21:53:09 86° W 21:53:57 60° S
Meteor 1-14 Rocket 4.1 21:52:28 10° N 21:58:07 78° E 21:59:36 51° SSE
Cosmos 2219 Rocket 4.2 22:03:40 14° ENE 22:03:40 14° ENE 22:04:43 10° NE
SeaSat 1 2.4 22:00:11 55° S 22:01:15 76° WSW 22:06:13 10° NNW
Cosmos 1777 Rocket 4.5 21:57:14 10° N 22:02:19 45° ENE 22:02:46 43° E
H-2A R/B 2.9 22:07:13 39° NE 22:07:13 39° NE 22:10:41 10° N
USA 229 DEB 3.6 22:04:46 37° S 22:07:24 58° ESE 22:14:11 10° NE
USA 229 3.7 22:05:03 38° S 22:07:30 58° ESE 22:14:16 10° NE
Cosmos 1908 Rocket 4.0 22:06:15 10° NNW 22:10:30 54° W 22:11:04 50° SW
USA 245 4.4 22:08:34 42° S 22:10:37 70° WSW 22:15:55 10° NNW
Landsat 7 3.9 22:11:17 60° ENE 22:11:17 60° ENE 22:15:54 10° N
Cosmos 2237 4.2 22:13:32 57° E 22:13:32 57° E 22:18:56 10° NNE
Meteor 1-25 Rocket 4.0 22:12:06 10° N 22:17:44 83° E 22:18:23 70° SSE
DMSP B5D2-2 4.3 22:12:57 10° NNE 22:17:32 52° ENE 22:17:32 52° ENE
COSMOS 2428 3.2 22:23:05 45° ENE 22:23:05 45° ENE 22:27:27 10° NE
Cosmos 1867 3.4 22:16:48 10° NW 22:22:17 81° WSW 22:22:40 75° S
Cosmos 2263 Rocket 3.2 22:17:43 10° NW 22:22:49 37° WSW 22:24:23 31° SW
H-2A R/B 1.8 22:24:03 79° SSW 22:24:17 83° WSW 22:29:17 10° NNW
Cosmos 1782 Rocket 3.8 22:20:05 10° NNW 22:24:09 65° WNW 22:24:09 65° WNW
Okean 2 Rocket 3.3 22:20:11 10° N 22:24:13 70° N 22:24:13 70° N
Abrixas rocket 4.5 22:23:15 10° WNW 22:25:18 25° NW 22:25:18 25° NW
Terra 2.2 22:26:53 55° NE 22:26:53 55° NE 22:31:02 10° N
Cosmos 2322 Rocket 4.1 22:22:21 10° WSW 22:27:09 29° NW 22:32:00 10° N
Cosmos 2360 Rocket 2.8 22:34:16 22° SW 22:37:51 55° WNW 22:43:27 10° NNE
Lacrosse 4 Rocket 4.0 22:37:16 10° W 22:39:04 12° WSW 22:39:39 12° WSW
Meteor 1-20 Rocket 4.2 22:34:21 10° NNW 22:39:53 73° W 22:40:13 71° SW
Cosmos 1745 Rocket 4.5 22:34:04 10° N 22:40:02 45° ENE 22:40:02 45° ENE
Cosmos 1844 4.0 22:36:24 10° NNW 22:41:50 53° NE 22:41:50 53° NE
Cosmos 2322 4.2 22:40:41 32° SW 22:43:15 58° WNW 22:48:54 10° NNE
Cosmos 968 Rocket 4.5 22:41:19 10° NW 22:46:04 37° WSW 22:46:23 37° WSW
Geosat 4.1 22:43:21 10° NNE 22:47:59 72° NNW 22:47:59 72° NNW
Meteor 2-6 Rocket 4.2 22:49:28 80° ENE 22:49:28 80° ENE 22:55:15 10° NNE
ASTEX 1 3.7 22:50:52 63° N 22:50:52 63° N 22:55:05 10° N
Okean 1-7 4.3 22:55:18 37° WNW 22:55:18 37° WNW 22:59:10 10° N
CZ-4C R/B 3.6 22:51:14 10° NNW 22:57:52 43° NE 22:59:44 37° ENE
Cosmos 2333 Rocket 3.4 23:04:54 33° NE 23:04:54 33° NE 23:08:11 10° NE
CZ-4B R/B 4.4 22:58:54 10° NNE 23:01:53 39° NNE 23:01:53 39° NNE
Cosmos 2333 4.4 23:05:37 71° N 23:05:37 71° N 23:10:48 10° NNE
ATLAS 5 CENTAUR R/B 3.3 23:00:22 10° NW 23:05:54 37° WSW 23:05:54 37° WSW
Cosmos 2237 Rocket 3.7 23:14:50 27° NE 23:14:50 27° NE 23:17:32 10° NE
Cosmos 2278 Rocket 2.8 23:09:32 10° NNW 23:14:18 50° NNE 23:14:18 50° NNE
Meteor 1-27 Rocket 4.1 23:19:30 61° N 23:19:30 61° N 23:24:06 10° N
Cosmos 1553 Rocket 4.1 23:23:21 74° WNW 23:23:21 74° WNW 23:29:23 10° N
Cosmos 1844 Rocket 3.4 23:21:25 10° NNW 23:25:44 45° WNW 23:25:44 45° WNW
CZ-2C R/B 4.3 23:33:16 10° NNE 23:35:56 25° NE 23:35:56 25° NE
Meteor 1-11 Rocket 4.4 23:33:46 10° NNW 23:38:03 48° NW 23:38:03 48° NW
NOSS 0 Rocket 4.4 23:45:06 56° NNE 23:45:06 56° NNE 23:49:51 10° NNE
Cosmos 2219 Rocket 2.9 23:45:20 50° NNW 23:45:20 50° NNW 23:49:50 10° NNE
